QPF
0.03 0.04 0.03 0.03 0.03 0.03 0.04 0.04 0.04 0.05 0.04 0.03 0.03 0.05 0.06 0.05 0.03 0.02 0.01 0.01 0.01 0.01 0.02 0.02 0.03 0.04 0.04 0.05 0.05 0.05 0.05 0.05 0.05 0.05 0.05 0.07 0.08 0.08 0.08 0.07 0.07 0.07 0.05
0.05 0.05 0.05 0.04 0.04 0.04 0.04 0.04 0.05 0.05 0.04 0.03 0.04 0.04 0.04 0.04 0.03 0.03 0.02 0.02 0.01 0.01 0.01 0.01 0.02 0.03 0.04 0.04 0.04 0.04 0.04 0.05 0.05 0.05 0.07 0.08 0.08 0.08 0.08 0.08 0.05 0.05 0.05
0.07 0.06 0.05 0.05 0.05 0.05 0.05 0.05 0.06 0.05 0.04 0.05 0.04 0.04 0.04 0.03 0.03 0.03 0.02 0.02 0.02 0.02 0.02 0.03 0.03 0.04 0.05 0.05 0.05 0.04 0.04 0.04 0.05 0.05 0.06 0.07 0.08 0.07 0.07 0.08 0.07 0.06 0.03
0.08 0.06 0.05 0.06 0.07 0.07 0.07 0.05 0.05 0.05 0.05 0.05 0.05 0.05 0.04 0.05 0.04 0.03 0.02 0.02 0.03 0.03 0.03 0.03 0.03 0.04 0.05 0.07 0.06 0.05 0.06 0.06 0.07 0.07 0.07 0.08 0.08 0.08 0.08 0.08 0.09 0.09 0.06
0.08 0.08 0.06 0.06 0.08 0.08 0.07 0.06 0.06 0.05 0.04 0.05 0.06 0.06 0.05 0.06 0.05 0.05 0.03 0.03 0.03 0.03 0.04 0.03 0.02 0.03 0.04 0.05 0.06 0.07 0.08 0.08 0.08 0.07 0.07 0.08 0.08 0.08 0.08 0.09 0.08 0.09 0.09
0.06 0.08 0.07 0.06 0.08 0.07 0.05 0.06 0.06 0.06 0.05 0.05 0.04 0.05 0.06 0.05 0.04 0.04 0.04 0.05 0.05 0.04 0.05 0.05 0.04 0.03 0.04 0.04 0.03 0.04 0.05 0.06 0.06 0.06 0.07 0.08 0.08 0.08 0.08 0.09 0.09 0.08 0.08
0.07 0.08 0.07 0.06 0.06 0.05 0.03 0.03 0.05 0.05 0.05 0.04 0.04 0.05 0.05 0.04 0.04 0.03 0.02 0.04 0.05 0.05 0.06 0.07 0.05 0.04 0.05 0.05 0.05 0.04 0.04 0.04 0.04 0.05 0.06 0.07 0.07 0.07 0.08 0.07 0.08 0.08 0.08
0.07 0.07 0.06 0.06 0.05 0.04 0.03 0.03 0.04 0.05 0.06 0.05 0.05 0.06 0.06 0.04 0.03 0.02 0.01 0.03 0.06 0.07 0.07 0.08 0.07 0.07 0.05 0.05 0.05 0.06 0.06 0.07 0.04 0.04 0.05 0.06 0.06 0.06 0.07 0.07 0.07 0.07 0.07
0.05 0.05 0.06 0.05 0.07 0.05 0.04 0.04 0.04 0.04 0.05 0.06 0.06 0.06 0.07 0.05 0.03 0.02 0.02 0.03 0.05 0.07 0.07 0.09 0.08 0.07 0.06 0.05 0.05 0.05 0.07 0.08 0.06 0.05 0.04 0.05 0.04 0.04 0.05 0.06 0.06 0.06 0.05
0.04 0.04 0.04 0.05 0.11 0.07 0.04 0.04 0.04 0.04 0.04 0.05 0.06 0.07 0.07 0.06 0.05 0.03 0.03 0.03 0.04 0.05 0.06 0.08 0.07 0.06 0.05 0.04 0.05 0.06 0.06 0.08 0.07 0.06 0.05 0.05 0.04 0.04 0.04 0.04 0.05 0.06 0.05
0.05 0.05 0.05 0.05 0.09 0.08 0.06 0.05 0.04 0.04 0.04 0.04 0.05 0.05 0.07 0.07 0.06 0.03 0.03 0.02 0.03 0.05 0.05 0.04 0.06 0.07 0.05 0.05 0.06 0.07 0.07 0.08 0.09 0.08 0.06 0.05 0.05 0.04 0.05 0.05 0.05 0.06 0.06
0.05 0.06 0.07 0.06 0.06 0.07 0.07 0.06 0.05 0.05 0.05 0.05 0.05 0.05 0.06 0.05 0.03 0.02 0.02 0.02 0.03 0.04 0.05 0.04 0.04 0.06 0.06 0.05 0.06 0.08 0.08 0.07 0.07 0.07 0.06 0.05 0.04 0.04 0.04 0.04 0.04 0.05 0.06
0.06 0.08 0.10 0.09 0.07 0.07 0.07 0.07 0.05 0.05 0.05 0.04 0.04 0.04 0.04 0.04 0.03 0.02 0.01 0.01 0.02 0.02 0.04 0.04 0.03 0.03 0.04 0.05 0.06 0.08 0.08 0.07 0.06 0.05 0.05 0.05 0.05 0.04 0.04 0.04 0.03 0.04 0.04
0.07 0.09 0.09 0.08 0.07 0.07 0.07 0.07 0.06 0.05 0.05 0.05 0.04 0.04 0.04 0.04 0.03 0.02 0.01 0.01 0.02 0.02 0.02 0.03 0.02 0.02 0.03 0.05 0.06 0.07 0.06 0.06 0.04 0.04 0.05 0.05 0.06 0.06 0.05 0.05 0.05 0.05 0.04
0.04 0.05 0.06 0.06 0.05 0.05 0.05 0.05 0.06 0.05 0.05 0.06 0.05 0.04 0.03 0.03 0.02 0.02 0.01 0.01 0.02 0.02 0.02 0.03 0.03 0.03 0.04 0.04 0.04 0.04 0.05 0.05 0.05 0.05 0.05 0.05 0.07 0.07 0.06 0.07 0.07 0.06 0.06
0.03 0.03 0.03 0.04 0.04 0.04 0.03 0.03 0.04 0.04 0.04 0.05 0.05 0.04 0.02 0.01 0.01 0.01 0.01 0.01 0.01 0.02 0.03 0.04 0.04 0.03 0.03 0.02 0.02 0.02 0.03 0.03 0.03 0.03 0.03 0.04 0.04 0.04 0.05 0.06 0.07 0.08 0.07
0.03 0.03 0.03 0.03 0.03 0.03 0.03 0.04 0.04 0.04 0.03 0.03 0.03 0.03 0.02 0.02 0.01 0.01 0.01 0.01 0.01 0.02 0.03 0.03 0.03 0.03 0.03 0.03 0.03 0.02 0.02 0.02 0.03 0.03 0.03 0.03 0.03 0.03 0.04 0.05 0.06 0.08 0.08
0.02 0.02 0.02 0.03 0.02 0.02 0.02 0.03 0.04 0.05 0.04 0.03 0.02 0.02 0.02 0.02 0.02 0.01 0.01 0.02 0.02 0.03 0.02 0.02 0.02 0.03 0.03 0.03 0.02 0.02 0.02 0.02 0.03 0.03 0.04 0.05 0.05 0.04 0.04 0.04 0.05 0.07 0.08
0.02 0.02 0.02 0.02 0.01 0.01 0.02 0.02 0.03 0.04 0.05 0.07 0.10 0.08 0.05 0.04 0.03 0.03 0.03 0.03 0.03 0.03 0.03 0.02 0.02 0.03 0.04 0.03 0.02 0.03 0.03 0.04 0.03 0.03 0.03 0.04 0.04 0.04 0.04 0.04 0.05 0.06 0.06
0.03 0.02 0.02 0.01 0.01 0.01 0.01 0.02 0.03 0.05 0.08 0.10 0.13 0.16 0.13 0.09 0.06 0.04 0.04 0.04 0.05 0.06 0.05 0.04 0.04 0.04 0.03 0.03 0.03 0.03 0.03 0.03 0.04 0.04 0.03 0.03 0.04 0.04 0.04 0.04 0.04 0.05 0.06
0.02 0.01 0.01 0.01 0.01 0.01 0.02 0.04 0.07 0.08 0.08 0.13 0.17 0.17 0.16 0.16 0.12 0.07 0.04 0.04 0.05 0.06 0.06 0.06 0.05 0.04 0.03 0.03 0.03 0.03 0.02 0.02 0.02 0.03 0.03 0.03 0.03 0.04 0.04 0.04 0.04 0.04 0.04
0.01 0.02 0.02 0.01 0.02 0.02 0.02 0.04 0.08 0.13 0.12 0.10 0.10 0.10 0.08 0.07 0.07 0.05 0.03 0.03 0.02 0.02 0.02 0.03 0.03 0.03 0.03 0.03 0.02 0.02 0.01 0.01 0.01 0.01 0.01 0.02 0.02 0.03 0.03 0.03 0.02 0.02 0.03
0.02 0.03 0.04 0.04 0.03 0.03 0.03 0.04 0.08 0.11 0.10 0.08 0.05 0.04 0.04 0.03 0.02 0.02 0.01 0.01 0.01 0.01 0.02 0.02 0.02 0.02 0.02 0.02 0.02 0.01 0.01 0.01 0.01 0.01 0.01 0.01 0.01 0.01 0.01 0.01 0.02 0.02 0.02
0.02 0.03 0.08 0.11 0.08 0.06 0.05 0.05 0.05 0.06 0.05 0.04 0.03 0.02 0.02 0.01 0.01 0.01 0.00 0.01 0.01 0.01 0.01 0.01 0.02 0.02 0.03 0.03 0.03 0.02 0.01 0.01 0.01 0.00 0.00 0.00 0.00 0.01 0.01 0.01 0.01 0.01 0.02
0.01 0.02 0.03 0.05 0.06 0.06 0.05 0.05 0.04 0.03 0.03 0.03 0.02 0.02 0.01 0.01 0.01 0.01 0.01 0.01 0.01 0.01 0.01 0.02 0.02 0.02 0.02 0.02 0.02 0.03 0.03 0.02 0.02 0.01 0.01 0.01 0.00 0.00 0.01 0.01 0.01 0.01 0.01
0.01 0.01 0.01 0.02 0.02 0.02 0.02 0.02 0.02 0.02 0.02 0.02 0.02 0.01 0.01 0.01 0.01 0.02 0.02 0.02 0.02 0.02 0.02 0.01 0.01 0.01 0.01 0.01 0.01 0.01 0.01 0.01 0.01 0.01 0.01 0.01 0.01 0.01 0.01 0.01 0.01 0.01 0.01
MSLP
1006.37 1007.24 1008.05 1008.73 1009.25 1009.60 1009.79 1009.85 1009.87 1009.89 1009.98 1010.18 1010.47 1010.85 1011.26 1011.65 1011.98 1012.22 1012.36 1012.42 1012.45 1012.49 1012.58 1012.74 1012.99 1013.29 1013.61 1013.89 1014.10 1014.20 1014.19 1014.07 1013.90 1013.71 1013.55 1013.46 1013.44 1013.49 1013.59 1013.68 1013.73 1013.71 1013.60
1005.73 1006.60 1007.41 1008.12 1008.68 1009.06 1009.28 1009.39 1009.43 1009.47 1009.57 1009.76 1010.05 1010.43 1010.83 1011.23 1011.56 1011.79 1011.92 1011.95 1011.93 1011.91 1011.92 1012.02 1012.19 1012.45 1012.75 1013.05 1013.32 1013.50 1013.59 1013.59 1013.53 1013.43 1013.34 1013.29 1013.30 1013.37 1013.48 1013.60 1013.70 1013.74 1013.71
1005.19 1006.03 1006.84 1007.56 1008.14 1008.57 1008.85 1009.00 1009.09 1009.17 1009.30 1009.50 1009.80 1010.17 1010.57 1010.95 1011.27 1011.48 1011.58 1011.56 1011.48 1011.38 1011.32 1011.32 1011.42 1011.61 1011.88 1012.19 1012.49 1012.75 1012.93 1013.04 1013.09 1013.09 1013.08 1013.08 1013.13 1013.23 1013.36 1013.51 1013.65 1013.75 1013.80
1004.86 1005.65 1006.42 1007.14 1007.75 1008.22 1008.55 1008.76 1008.90 1009.03 1009.19 1009.41 1009.72 1010.08 1010.47 1010.83 1011.11 1011.29 1011.34 1011.27 1011.12 1010.94 1010.78 1010.69 1010.70 1010.82 1011.05 1011.34 1011.66 1011.97 1012.23 1012.43 1012.57 1012.66 1012.73 1012.80 1012.89 1013.01 1013.17 1013.34 1013.52 1013.67 1013.79
1004.85 1005.55 1006.28 1006.97 1007.58 1008.07 1008.43 1008.70 1008.89 1009.05 1009.24 1009.48 1009.78 1010.12 1010.48 1010.81 1011.05 1011.18 1011.18 1011.05 1010.83 1010.56 1010.32 1010.14 1010.06 1010.11 1010.27 1010.54 1010.86 1011.19 1011.51 1011.77 1011.99 1012.15 1012.28 1012.40 1012.52 1012.67 1012.84 1013.04 1013.25 1013.44 1013.62
1005.21 1005.82 1006.47 1007.10 1007.68 1008.17 1008.54 1008.83 1009.04 1009.23 1009.42 1009.65 1009.94 1010.25 1010.57 1010.85 1011.04 1011.12 1011.06 1010.87 1010.59 1010.26 1009.93 1009.67 1009.52 1009.49 1009.59 1009.81 1010.11 1010.44 1010.78 1011.08 1011.33 1011.54 1011.71 1011.86 1012.00 1012.17 1012.36 1012.57 1012.80 1013.03 1013.25
1005.95 1006.45 1007.00 1007.56 1008.08 1008.52 1008.87 1009.13 1009.33 1009.51 1009.68 1009.89 1010.13 1010.41 1010.67 1010.90 1011.04 1011.07 1010.96 1010.73 1010.39 1010.01 1009.63 1009.30 1009.08 1008.98 1009.02 1009.19 1009.44 1009.75 1010.07 1010.37 1010.63 1010.85 1011.03 1011.19 1011.35 1011.52 1011.71 1011.93 1012.17 1012.43 1012.68
1007.00 1007.39 1007.83 1008.29 1008.72 1009.07 1009.36 1009.56 1009.71 1009.84 1009.97 1010.13 1010.32 1010.54 1010.75 1010.93 1011.02 1011.01 1010.87 1010.60 1010.24 1009.83 1009.41 1009.04 1008.77 1008.61 1008.59 1008.69 1008.88 1009.13 1009.41 1009.68 1009.92 1010.12 1010.29 1010.44 1010.59 1010.76 1010.95 1011.17 1011.42 1011.70 1011.98
1008.21 1008.49 1008.83 1009.17 1009.48 1009.73 1009.92 1010.04 1010.11 1010.17 1010.23 1010.33 1010.46 1010.62 1010.78 1010.91 1010.97 1010.94 1010.78 1010.51 1010.14 1009.72 1009.29 1008.90 1008.58 1008.38 1008.30 1008.33 1008.45 1008.64 1008.85 1009.06 1009.25 1009.41 1009.55 1009.67 1009.80 1009.95 1010.14 1010.36 1010.62 1010.91 1011.21
1009.41 1009.60 1009.83 1010.05 1010.24 1010.37 1010.45 1010.46 1010.45 1010.42 1010.42 1010.45 1010.54 1010.65 1010.78 1010.88 1010.92 1010.87 1010.72 1010.46 1010.10 1009.69 1009.27 1008.87 1008.53 1008.29 1008.16 1008.12 1008.17 1008.28 1008.41 1008.55 1008.68 1008.78 1008.87 1008.96 1009.06 1009.19 1009.36 1009.58 1009.85 1010.14 1010.46
1010.43 1010.55 1010.68 1010.79 1010.86 1010.88 1010.84 1010.76 1010.66 1010.57 1010.51 1010.50 1010.54 1010.63 1010.74 1010.83 1010.87 1010.84 1010.70 1010.46 1010.13 1009.74 1009.33 1008.94 1008.59 1008.33 1008.14 1008.05 1008.03 1008.06 1008.12 1008.18 1008.23 1008.28 1008.31 1008.36 1008.42 1008.53 1008.68 1008.89 1009.14 1009.44 1009.76
1011.16 1011.21 1011.25 1011.27 1011.24 1011.15 1011.03 1010.87 1010.70 1010.57 1010.48 1010.45 1010.48 1010.57 1010.68 1010.78 1010.84 1010.82 1010.71 1010.50 1010.21 1009.85 1009.46 1009.07 1008.73 1008.44 1008.23 1008.09 1008.01 1007.97 1007.96 1007.95 1007.93 1007.91 1007.90 1007.89 1007.92 1007.99 1008.11 1008.29 1008.53 1008.81 1009.12
1011.53 1011.53 1011.50 1011.44 1011.33 1011.17 1010.97 1010.77 1010.57 1010.42 1010.33 1010.31 1010.36 1010.46 1010.59 1010.72 1010.80 1010.81 1010.72 1010.55 1010.28 1009.95 1009.59 1009.22 1008.88 1008.59 1008.35 1008.18 1008.06 1007.97 1007.90 1007.83 1007.76 1007.69 1007.62 1007.57 1007.54 1007.57 1007.65 1007.78 1007.98 1008.22 1008.49
1011.56 1011.52 1011.43 1011.31 1011.14 1010.93 1010.70 1010.47 1010.28 1010.13 1010.07 1010.08 1010.16 1010.30 1010.46 1010.61 1010.71 1010.75 1010.69 1010.54 1010.30 1009.99 1009.65 1009.31 1008.98 1008.69 1008.45 1008.26 1008.12 1008.00 1007.90 1007.80 1007.69 1007.57 1007.45 1007.35 1007.28 1007.24 1007.26 1007.33 1007.46 1007.63 1007.84
1011.33 1011.25 1011.12 1010.94 1010.73 1010.49 1010.25 1010.02 1009.85 1009.74 1009.70 1009.76 1009.88 1010.05 1010.24 1010.41 1010.53 1010.58 1010.54 1010.40 1010.18 1009.90 1009.59 1009.26 1008.96 1008.69 1008.46 1008.29 1008.15 1008.02 1007.91 1007.79 1007.66 1007.52 1007.37 1007.22 1007.08 1006.98 1006.92 1006.90 1006.94 1007.02 1007.14
1010.96 1010.83 1010.65 1010.44 1010.20 1009.94 1009.70 1009.48 1009.33 1009.25 1009.26 1009.34 1009.50 1009.69 1009.89 1010.07 1010.20 1010.25 1010.21 1010.09 1009.88 1009.62 1009.34 1009.05 1008.78 1008.54 1008.35 1008.21 1008.09 1007.99 1007.90 1007.79 1007.66 1007.50 1007.32 1007.13 1006.94 1006.76 1006.61 1006.50 1006.42 1006.38 1006.39
1010.56 1010.38 1010.16 1009.91 1009.64 1009.37 1009.12 1008.92 1008.78 1008.72 1008.75 1008.85 1009.01 1009.20 1009.40 1009.57 1009.68 1009.72 1009.68 1009.56 1009.37 1009.14 1008.89 1008.64 1008.42 1008.24 1008.10 1008.01 1007.94 1007.89 1007.83 1007.75 1007.64 1007.50 1007.31 1007.09 1006.85 1006.60 1006.36 1006.13 1005.94 1005.77 1005.64
1010.22 1009.99 1009.73 1009.43 1009.13 1008.84 1008.58 1008.37 1008.23 1008.17 1008.19 1008.28 1008.42 1008.58 1008.75 1008.89 1008.97 1009.00 1008.95 1008.83 1008.67 1008.47 1008.26 1008.07 1007.91 1007.80 1007.73 1007.70 1007.70 1007.71 1007.72 1007.69 1007.62 1007.50 1007.32 1007.09 1006.82 1006.52 1006.19 1005.87 1005.55 1005.25 1004.98
1009.99 1009.71 1009.39 1009.06 1008.72 1008.40 1008.11 1007.88 1007.71 1007.62 1007.60 1007.65 1007.74 1007.85 1007.97 1008.06 1008.11 1008.11 1008.05 1007.95 1007.80 1007.65 1007.50 1007.37 1007.28 1007.24 1007.25 1007.31 1007.39 1007.48 1007.55 1007.59 1007.58 1007.51 1007.36 1007.15 1006.86 1006.52 1006.14 1005.73 1005.30 1004.88 1004.49
1009.88 1009.54 1009.18 1008.79 1008.41 1008.05 1007.72 1007.44 1007.23 1007.09 1007.00 1006.98 1007.00 1007.05 1007.10 1007.13 1007.14 1007.12 1007.06 1006.96 1006.85 1006.75 1006.65 1006.60 1006.58 1006.63 1006.72 1006.85 1007.01 1007.19 1007.34 1007.46 1007.53 1007.52 1007.43 1007.25 1006.98 1006.62 1006.20 1005.73 1005.21 1004.69 1004.19
1009.86 1009.47 1009.05 1008.62 1008.19 1007.78 1007.40 1007.07 1006.79 1006.57 1006.42 1006.31 1006.25 1006.22 1006.20 1006.17 1006.14 1006.10 1006.03 1005.96 1005.89 1005.83 1005.80 1005.81 1005.86 1005.98 1006.15 1006.36 1006.60 1006.85 1007.09 1007.30 1007.45 1007.52 1007.49 1007.36 1007.12 1006.78 1006.34 1005.82 1005.24 1004.64 1004.03
1009.90 1009.46 1008.99 1008.51 1008.03 1007.57 1007.14 1006.74 1006.40 1006.10 1005.86 1005.67 1005.53 1005.42 1005.33 1005.25 1005.18 1005.12 1005.05 1005.00 1004.96 1004.95 1004.97 1005.03 1005.15 1005.33 1005.55 1005.83 1006.14 1006.47 1006.78 1007.07 1007.30 1007.45 1007.50 1007.43 1007.23 1006.91 1006.47 1005.92 1005.29 1004.61 1003.91
1009.96 1009.47 1008.96 1008.43 1007.91 1007.40 1006.92 1006.47 1006.06 1005.69 1005.37 1005.10 1004.88 1004.70 1004.55 1004.42 1004.32 1004.24 1004.18 1004.14 1004.12 1004.14 1004.20 1004.30 1004.46 1004.68 1004.95 1005.27 1005.63 1006.01 1006.40 1006.75 1007.06 1007.28 1007.40 1007.39 1007.23 1006.92 1006.48 1005.90 1005.21 1004.45 1003.66
1010.00 1009.46 1008.92 1008.36 1007.81 1007.26 1006.74 1006.24 1005.78 1005.36 1004.98 1004.64 1004.35 1004.10 1003.90 1003.73 1003.60 1003.50 1003.43 1003.40 1003.39 1003.42 1003.49 1003.61 1003.79 1004.02 1004.31 1004.66 1005.05 1005.47 1005.91 1006.32 1006.68 1006.97 1007.14 1007.16 1007.03 1006.73 1006.25 1005.63 1004.87 1004.02 1003.12
1009.99 1009.43 1008.86 1008.29 1007.72 1007.16 1006.61 1006.08 1005.58 1005.11 1004.68 1004.29 1003.95 1003.65 1003.40 1003.20 1003.03 1002.91 1002.82 1002.77 1002.76 1002.78 1002.85 1002.96 1003.13 1003.35 1003.65 1004.00 1004.40 1004.85 1005.31 1005.76 1006.16 1006.49 1006.69 1006.73 1006.59 1006.27 1005.74 1005.04 1004.19 1003.22 1002.20
1009.93 1009.36 1008.79 1008.22 1007.65 1007.08 1006.53 1005.99 1005.47 1004.97 1004.50 1004.07 1003.69 1003.35 1003.05 1002.81 1002.61 1002.45 1002.33 1002.25 1002.21 1002.21 1002.24 1002.33 1002.47 1002.67 1002.94 1003.29 1003.69 1004.14 1004.62 1005.08 1005.51 1005.84 1006.05 1006.09 1005.92 1005.54 1004.94 1004.14 1003.17 1002.07 1000.91
Thickness
5733 5732 5730 5728 5726 5723 5721 5720 5719 5718 5717 5715 5714 5712 5711 5710 5709 5707 5706 5706 5704 5703 5702 5701 5701 5701 5700 5700 5699 5697 5694 5691 5685 5687 5689 5690 5689 5690 5690 5689 5688 5687 5685
5730 5727 5725 5723 5721 5719 5716 5715 5714 5713 5712 5711 5710 5708 5707 5706 5705 5703 5701 5701 5700 5698 5697 5696 5696 5696 5694 5694 5692 5690 5688 5687 5683 5679 5680 5681 5682 5683 5683 5682 5683 5682 5681
5725 5722 5719 5717 5715 5713 5711 5710 5709 5708 5706 5706 5704 5703 5702 5702 5700 5699 5697 5697 5696 5694 5693 5691 5690 5689 5688 5687 5686 5684 5682 5682 5679 5675 5673 5674 5675 5676 5675 5676 5676 5676 5676
5720 5716 5713 5711 5709 5708 5706 5706 5704 5703 5701 5700 5699 5698 5698 5696 5695 5694 5693 5691 5690 5689 5688 5687 5685 5684 5682 5681 5680 5678 5676 5674 5672 5670 5668 5668 5667 5669 5668 5666 5665 5667 5668
5713 5709 5707 5706 5704 5702 5700 5700 5698 5697 5696 5694 5693 5692 5692 5691 5689 5687 5686 5686 5685 5683 5682 5681 5680 5679 5678 5676 5675 5672 5670 5667 5665 5663 5662 5661 5660 5658 5658 5659 5656 5658 5660
5706 5702 5701 5699 5697 5696 5695 5694 5692 5691 5690 5689 5687 5687 5686 5686 5682 5680 5680 5680 5678 5677 5676 5676 5675 5674 5673 5671 5670 5667 5665 5662 5660 5658 5656 5654 5653 5653 5652 5652 5649 5649 5648
5700 5697 5695 5693 5691 5690 5690 5689 5687 5685 5684 5683 5682 5681 5680 5678 5676 5675 5674 5674 5673 5673 5671 5670 5671 5671 5668 5666 5664 5662 5660 5659 5657 5654 5651 5649 5648 5648 5646 5645 5644 5643 5644
5693 5691 5690 5689 5687 5686 5684 5683 5682 5680 5679 5678 5677 5677 5675 5673 5670 5669 5669 5669 5669 5668 5667 5666 5665 5665 5664 5660 5659 5657 5656 5655 5653 5651 5649 5648 5646 5645 5643 5641 5640 5640 5642
5686 5685 5685 5684 5682 5680 5678 5677 5676 5675 5673 5673 5672 5672 5670 5667 5665 5664 5663 5664 5664 5663 5662 5662 5661 5659 5657 5655 5653 5652 5651 5650 5649 5647 5645 5644 5642 5640 5638 5636 5635 5633 5633
5680 5680 5679 5678 5676 5674 5672 5671 5671 5669 5668 5667 5667 5666 5665 5663 5659 5658 5657 5658 5657 5657 5656 5655 5654 5653 5651 5649 5648 5647 5645 5644 5644 5643 5640 5640 5639 5637 5636 5633 5631 5629 5629
5674 5673 5672 5671 5670 5668 5667 5665 5664 5663 5662 5661 5660 5660 5660 5658 5654 5652 5651 5651 5651 5651 5650 5649 5648 5647 5645 5644 5642 5642 5641 5639 5639 5638 5637 5637 5636 5635 5633 5632 5630 5628 5626
5666 5665 5665 5664 5663 5662 5660 5659 5659 5658 5656 5655 5654 5653 5654 5652 5649 5646 5645 5644 5644 5644 5644 5644 5642 5640 5639 5639 5638 5637 5636 5635 5635 5634 5633 5633 5632 5631 5631 5630 5629 5627 5626
5657 5657 5657 5657 5655 5654 5653 5652 5652 5651 5651 5651 5650 5649 5648 5647 5644 5641 5639 5638 5638 5637 5638 5637 5636 5635 5634 5634 5633 5632 5631 5630 5630 5629 5629 5629 5629 5629 5628 5627 5626 5625 5624
5648 5647 5648 5648 5647 5646 5646 5646 5645 5645 5645 5645 5645 5644 5643 5641 5638 5636 5634 5633 5632 5631 5631 5631 5631 5630 5631 5630 5629 5628 5627 5627 5626 5625 5625 5626 5626 5625 5624 5623 5621 5620 5619
5640 5639 5640 5640 5640 5638 5638 5638 5639 5639 5639 5639 5639 5638 5637 5635 5633 5631 5630 5630 5629 5627 5626 5627 5627 5627 5627 5627 5627 5626 5625 5624 5622 5621 5621 5620 5620 5619 5619 5619 5618 5616 5614
5633 5633 5633 5634 5634 5633 5632 5632 5632 5633 5632 5632 5633 5633 5632 5630 5628 5627 5625 5625 5624 5622 5621 5623 5623 5624 5624 5624 5623 5623 5621 5620 5618 5617 5616 5616 5615 5614 5614 5614 5613 5612 5610
5628 5627 5627 5629 5629 5628 5628 5628 5626 5625 5625 5625 5626 5626 5624 5623 5622 5621 5620 5620 5619 5617 5617 5619 5619 5620 5621 5621 5620 5619 5617 5616 5615 5613 5612 5611 5611 5610 5609 5609 5608 5607 5606
5623 5622 5622 5623 5624 5625 5625 5626 5626 5625 5623 5621 5620 5620 5619 5618 5617 5616 5615 5614 5615 5614 5616 5616 5616 5617 5617 5616 5615 5614 5613 5612 5611 5609 5607 5606 5606 5605 5604 5603 5603 5602 5601
5617 5617 5617 5619 5620 5621 5622 5623 5624 5624 5622 5620 5618 5614 5612 5611 5610 5609 5609 5611 5612 5613 5614 5614 5613 5613 5613 5612 5610 5609 5608 5607 5605 5604 5602 5602 5601 5600 5599 5598 5597 5595 5595
5610 5610 5610 5613 5616 5617 5618 5618 5618 5618 5617 5616 5615 5613 5608 5607 5607 5606 5605 5607 5608 5608 5609 5609 5608 5608 5607 5606 5605 5604 5602 5601 5600 5599 5597 5596 5596 5594 5593 5592 5591 5590 5590
5605 5605 5604 5607 5610 5611 5611 5611 5612 5612 5612 5611 5611 5609 5606 5604 5604 5603 5603 5602 5602 5603 5603 5602 5601 5601 5600 5599 5598 5597 5595 5594 5592 5591 5590 5589 5589 5588 5587 5586 5586 5585 5585
5599 5600 5600 5601 5603 5603 5604 5605 5605 5605 5605 5605 5605 5604 5600 5601 5600 5600 5598 5598 5598 5598 5597 5595 5594 5593 5593 5592 5591 5588 5587 5585 5584 5583 5582 5582 5582 5581 5581 5580 5580 5579 5579
5592 5593 5594 5595 5596 5595 5596 5597 5598 5598 5598 5598 5597 5596 5595 5594 5594 5593 5593 5592 5591 5591 5589 5588 5587 5586 5585 5584 5583 5581 5579 5577 5576 5576 5574 5574 5574 5573 5573 5573 5573 5573 5573
5585 5586 5587 5588 5588 5589 5589 5589 5590 5590 5590 5589 5589 5589 5587 5586 5586 5586 5586 5585 5585 5584 5582 5581 5580 5579 5577 5575 5573 5571 5569 5568 5568 5567 5566 5566 5566 5566 5566 5566 5566 5566 5566
5579 5579 5580 5580 5580 5581 5581 5581 5581 5581 5581 5580 5580 5580 5580 5579 5579 5578 5577 5577 5576 5575 5574 5573 5572 5571 5569 5567 5564 5561 5560 5560 5559 5558 5558 5559 5559 5559 5559 5559 5558 5558 5559
5573 5573 5573 5573 5573 5573 5572 5572 5572 5572 5572 5572 5572 5572 5571 5571 5570 5570 5569 5568 5567 5566 5566 5565 5563 5561 5559 5557 5555 5553 5552 5552 5551 5550 5550 5551 5551 5551 5550 5551 5551 5551 5552